"Pseudo-MPEC" for C1H1NP2

Created 2019 Dec 12 23:07:03 UT using Find_Orb

Click here for an explanation of pseudo-MPECs

 
 Astrometry: 
     C1H1NP2  C2019 11 24.38593 05 36 06.68 +14 55 43.4    ~BOAq 21.8 GVNEOCPG96
     C1H1NP2  C2019 11 24.39106 05 36 06.75 +14 55 46.9    ~BOAq 21.2 GVNEOCPG96
     C1H1NP2  C2019 11 24.39619 05 36 06.89 +14 55 50.8    ~BOAq 22.2 GVNEOCPG96
     C1H1NP2  C2019 11 24.40131 05 36 06.94 +14 55 54.5    ~BOAq 21.8 GVNEOCPG96
     C1H1NP2  C2019 11 24.45783 05 36 07.80 +14 56 33.4    ~BOBM 22.0 GVNEOCPV06
     C1H1NP2  C2019 11 24.46090 05 36 07.87 +14 56 35.3    ~BOBM 22.2 GVNEOCPV06
     C1H1NP2  C2019 11 24.46214405 36 07.83 +14 56 35.4    ~BOBq 21.6 GVNEOCPH01
     C1H1NP2  C2019 11 24.46397 05 36 07.92 +14 56 37.6    ~BOBM 22.8 GVNEOCPV06
     C1H1NP2  C2019 11 24.46679105 36 07.90 +14 56 38.5    ~BOBq 21.7 GVNEOCPH01
     C1H1NP2  C2019 11 24.46705 05 36 07.97 +14 56 39.3    ~BOBM 22.2 GVNEOCPV06
     C1H1NP2  C2019 11 24.47583105 36 08.04 +14 56 44.7    ~BOBq 21.6 GVNEOCPH01
     C1H1NP2  C2019 11 24.48360905 36 08.17 +14 56 49.9    ~BOBq 21.7 GVNEOCPH01
     C1H1NP2  C2019 12 02.36912 05 37 53.16 +16 33 51.8    ~C29M 21.9 GVNEOCPV06
     C1H1NP2  C2019 12 02.37229 05 37 53.19 +16 33 54.4    ~C29M 21.5 GVNEOCPV06
     C1H1NP2  C2019 12 02.37546 05 37 53.19 +16 33 56.8    ~C29M 21.8 GVNEOCPV06
     C1H1NP2  C2019 12 02.37863 05 37 53.16 +16 33 59.1    ~C29M 21.6 GVNEOCPV06

Station data:
(G96) Mt. Lemmon Survey  (N32.442754 W110.788720)  US/Arizona.  Observers T.
   A. Pruyne, B. M. Africano, E. J. Christensen, G. A. Farneth, D. C. Fuls,
   A. R. Gibbs, A. D. Grauer, H. Gröller, J. A. Johnson, R. A. Kowalski, S.
   M. Larson, G. J. Leonard, D. Rankin, R. L. Seaman, F. C. Shelly. 1.5-m
   reflector + 10K CCD.
(H01) Magdalena Ridge Observatory, Socorro  (N33.984833 W107.189333)  US/New
   Mexico.  Observers W. H. Ryan, E. V. Ryan. Measurer W. H. Ryan. 2.4-m
   f/8.9 reflector + CCD.
(V06) Catalina Sky Survey-Kuiper  (N32.416847 W110.732550)  US/Arizona.
   Observers T. A. Pruyne, B. M. Africano, E. J. Christensen, G. A. Farneth,
   D. C. Fuls, A. R. Gibbs, A. D. Grauer, H. Gröller, J. A. Johnson, R. A.
   Kowalski, S. M. Larson, G. J. Leonard, D. Rankin, R. L. Seaman, F. C.
   Shelly. 1.55-m reflector + CCD.

Orbital elements:  C1H1NP2
   Perihelion 2019 Nov 4.486188 +/- 3.92 TT = 11:40:06 (JD 2458791.986188)
Epoch 2019 Dec  2.0 TT = JDT 2458819.5   Earth MOID: 0.3943   Ju: 0.4559
M   4.75758758 +/- 1.7              Ma: 0.0182                AutoNEOCP
n   0.17291633 +/- 0.0447           Peri.  316.35314 +/- 5.3
a   3.19089146 +/- 0.548            Node    96.75764 +/- 1.1
e   0.5688033 +/- 0.0559            Incl.    5.43805 +/- 0.8
P   5.70                   H 22.4   G  0.15   U 10.7  
q 1.37590164 +/- 0.0637    Q 5.00588128 +/- 1.07
From 16 observations 2019 Nov. 24-Dec. 2; mean residual 0".21
Residuals in arcseconds: 
191124 G96  .32-  .16-    191124 H01  .03+  .03-    191202 V06  .33-  .10-    
191124 G96  .42-  .22-    191124 V06  .24+  .24+    191202 V06  .19+  .08+    
191124 G96  .49+  .12+    191124 H01  .06-  .11-    191202 V06  .28+  .06+    
191124 G96  .10+  .27+    191124 V06  .25+  .16-    191202 V06  .06-  .06-    
191124 V06  .07-  .24+    191124 H01  .22-  .07-    
191124 V06  .23+  .04+    191124 H01  .24-  .16-    

Ephemerides (geocentric):
Date (UTC) HH   RA              Dec         delta   r     elong  mag " sig PA
---- -- -- --  -------------   -----------  ------ ------ -----  --- ---- ---
2019 12 12 23  05 37 37.086   +18 52 43.81  .45670 1.4393 173.8 21.9  198  51
2019 12 13 00  05 37 36.827   +18 53 16.63  .45681 1.4395 173.8 21.9  199  51
2019 12 13 01  05 37 36.567   +18 53 49.44  .45693 1.4396 173.9 21.9  200  51
2019 12 13 02  05 37 36.307   +18 54 22.25  .45705 1.4397 173.9 21.9  201  51
2019 12 13 03  05 37 36.046   +18 54 55.05  .45716 1.4399 173.9 21.9  202  51
2019 12 13 04  05 37 35.784   +18 55 27.85  .45728 1.4400 174.0 21.9  203  50
2019 12 13 05  05 37 35.521   +18 56 00.64  .45740 1.4401 174.0 21.9  205  50
2019 12 13 06  05 37 35.257   +18 56 33.43  .45752 1.4403 174.0 21.9  206  50
2019 12 13 07  05 37 34.993   +18 57 06.21  .45764 1.4404 174.1 21.9  207  50
2019 12 13 08  05 37 34.728   +18 57 38.99  .45775 1.4405 174.1 21.9  208  50
2019 12 13 09  05 37 34.462   +18 58 11.76  .45787 1.4407 174.1 21.9  209  50
2019 12 13 10  05 37 34.196   +18 58 44.53  .45799 1.4408 174.2 21.9  210  50
2019 12 13 11  05 37 33.928   +18 59 17.29  .45811 1.4409 174.2 21.9  211  50
2019 12 13 12  05 37 33.660   +18 59 50.05  .45823 1.4411 174.2 21.9  212  50
2019 12 13 13  05 37 33.392   +19 00 22.80  .45835 1.4412 174.3 21.9  213  50
2019 12 13 14  05 37 33.123   +19 00 55.54  .45847 1.4413 174.3 21.9  214  50
2019 12 13 15  05 37 32.853   +19 01 28.28  .45859 1.4415 174.4 21.9  215  50
2019 12 13 16  05 37 32.582   +19 02 01.02  .45871 1.4416 174.4 21.9  217  50
2019 12 13 17  05 37 32.310   +19 02 33.75  .45883 1.4417 174.4 21.9  218  50
2019 12 13 18  05 37 32.038   +19 03 06.47  .45895 1.4419 174.5 21.9  219  50
2019 12 13 19  05 37 31.766   +19 03 39.19  .45907 1.4420 174.5 21.9  220  50
2019 12 13 20  05 37 31.493   +19 04 11.90  .45920 1.4422 174.5 21.9  221  50
2019 12 13 21  05 37 31.219   +19 04 44.60  .45932 1.4423 174.6 21.9  222  50
2019 12 13 22  05 37 30.944   +19 05 17.30  .45944 1.4424 174.6 21.9  223  50
2019 12 13 23  05 37 30.669   +19 05 50.00  .45956 1.4426 174.6 21.9  224  50
2019 12 14 00  05 37 30.393   +19 06 22.69  .45969 1.4427 174.7 21.9  225  50
2019 12 14 01  05 37 30.117   +19 06 55.37  .45981 1.4428 174.7 21.9  227  50
2019 12 14 02  05 37 29.840   +19 07 28.04  .45993 1.4430 174.7 21.9  228  50
2019 12 14 03  05 37 29.562   +19 08 00.71  .46006 1.4431 174.8 21.9  229  50
2019 12 14 04  05 37 29.284   +19 08 33.37  .46018 1.4432 174.8 21.9  230  50
2019 12 14 05  05 37 29.005   +19 09 06.03  .46031 1.4434 174.8 21.9  231  49
2019 12 14 06  05 37 28.726   +19 09 38.68  .46043 1.4435 174.9 21.9  232  49
2019 12 14 07  05 37 28.446   +19 10 11.33  .46056 1.4436 174.9 21.9  233  49
2019 12 14 08  05 37 28.166   +19 10 43.96  .46068 1.4438 174.9 21.9  234  49
2019 12 14 09  05 37 27.885   +19 11 16.59  .46081 1.4439 175.0 21.9  236  49
2019 12 14 10  05 37 27.604   +19 11 49.22  .46093 1.4441 175.0 21.9  237  49
2019 12 14 11  05 37 27.322   +19 12 21.84  .46106 1.4442 175.0 21.9  238  49
2019 12 14 12  05 37 27.040   +19 12 54.45  .46119 1.4443 175.1 21.9  239  49
2019 12 14 13  05 37 26.757   +19 13 27.05  .46131 1.4445 175.1 21.9  240  49
2019 12 14 14  05 37 26.473   +19 13 59.65  .46144 1.4446 175.1 21.9  241  49
2019 12 14 15  05 37 26.189   +19 14 32.24  .46157 1.4447 175.1 21.9  242  49
2019 12 14 16  05 37 25.905   +19 15 04.82  .46169 1.4449 175.2 21.9  243  49
2019 12 14 17  05 37 25.620   +19 15 37.40  .46182 1.4450 175.2 21.9  245  49
2019 12 14 18  05 37 25.335   +19 16 09.97  .46195 1.4452 175.2 21.9  246  49
2019 12 14 19  05 37 25.049   +19 16 42.53  .46208 1.4453 175.3 21.9  247  49
2019 12 14 20  05 37 24.763   +19 17 15.09  .46221 1.4454 175.3 21.9  248  49
2019 12 14 21  05 37 24.477   +19 17 47.63  .46234 1.4456 175.3 21.9  249  49
2019 12 14 22  05 37 24.190   +19 18 20.18  .46247 1.4457 175.4 21.9  250  49